Wind_Speed
32 35 34 31 29 29 29 28 27 26 24 23 21 20 19 18 17 17 16 15 14 14 15 16 16 16 17 17 17 17 16 15 14 14 14 14 15 15 15 15 15 15 15 15 15 15 16 15 14 14 14 13 13 12 12 11 11 10 9 9 9 8 9
30 33 34 34 31 29 29 29 28 27 24 23 22 21 20 19 17 17 17 16 15 15 14 15 15 15 16 16 17 17 16 15 15 15 15 15 16 16 16 16 16 16 16 16 16 16 16 16 15 15 15 14 14 13 12 12 12 11 10 10 9 10 9
27 31 33 34 34 32 29 29 30 28 25 23 22 21 21 19 17 16 16 16 16 16 15 15 15 15 15 16 16 16 17 16 15 16 16 16 16 17 17 17 17 17 17 17 17 17 17 16 15 15 15 15 15 14 13 13 12 12 11 11 11 11 10
23 29 31 33 35 34 31 29 29 28 26 24 22 21 20 19 18 16 16 16 16 16 16 15 15 15 15 15 16 16 17 17 16 16 16 17 17 18 18 18 18 18 18 18 17 17 17 17 16 16 16 16 15 15 14 14 13 13 12 12 12 11 11
18 24 29 33 35 35 33 30 29 28 26 24 23 21 19 18 18 17 16 16 17 16 16 16 16 16 16 16 16 16 16 17 17 17 17 17 18 18 18 19 19 19 19 18 18 18 18 17 17 17 17 16 16 16 16 15 14 14 13 13 13 12 12
16 21 28 32 35 35 34 31 29 28 26 24 23 21 20 19 19 18 17 17 17 17 17 17 18 17 17 16 16 16 17 17 18 18 18 18 19 19 19 20 20 20 20 19 19 19 18 18 18 17 17 17 18 17 17 16 16 15 15 14 13 13 12
11 19 28 32 35 35 33 31 30 28 27 25 23 22 21 22 21 20 19 18 17 17 17 17 17 17 17 17 17 17 17 17 18 18 19 19 20 20 20 20 20 20 20 20 20 19 19 19 19 18 19 19 19 19 19 18 17 17 16 15 14 14 13
5 15 28 34 36 36 32 30 29 29 28 27 25 24 23 22 22 22 21 19 18 18 18 17 17 17 17 18 18 18 17 18 18 19 20 20 21 21 21 21 20 20 20 20 20 20 19 19 19 20 20 20 20 20 20 20 19 18 17 16 15 14 14
5 9 24 32 36 37 33 29 28 28 28 29 27 26 24 24 24 24 22 21 20 19 18 16 16 16 17 18 18 18 19 20 20 20 20 21 21 21 21 21 20 19 19 20 20 20 20 20 20 20 20 20 20 21 21 21 20 19 18 17 16 15 15
9 6 15 26 33 35 33 30 28 27 28 29 28 27 26 25 26 26 24 23 22 21 19 17 17 17 17 18 18 20 21 22 22 21 21 21 22 22 21 21 20 19 19 19 20 20 20 20 20 20 20 20 20 20 20 21 20 20 19 18 17 16 16
12 7 7 17 25 30 30 30 29 28 27 28 28 28 27 26 27 27 27 26 25 24 22 21 20 20 19 18 18 21 23 24 24 23 23 23 22 22 21 21 20 19 19 19 19 20 20 20 20 20 19 19 20 20 20 20 20 20 20 19 19 18 18
15 10 5 10 17 22 24 26 28 27 27 28 28 28 27 26 26 26 27 28 27 26 26 25 24 24 23 21 20 22 24 25 25 25 25 24 23 23 22 22 21 21 20 20 20 20 20 20 20 20 20 20 20 20 20 20 21 21 20 20 20 20 20
17 12 7 7 11 17 19 21 23 25 26 27 27 27 27 26 25 25 26 28 28 28 28 28 27 27 26 25 25 25 25 26 26 26 26 26 25 24 24 23 23 22 22 22 21 20 20 20 20 20 20 20 20 20 20 20 21 21 20 20 20 20 20
16 13 10 8 8 14 19 21 21 22 23 25 26 27 27 25 25 25 25 27 29 30 30 30 30 30 29 29 29 28 27 27 28 28 28 28 27 26 26 25 24 24 24 23 22 21 21 21 20 20 20 20 20 20 20 20 20 20 20 19 20 20 20
14 13 12 9 8 11 16 19 19 19 21 23 24 25 25 25 25 25 25 26 27 29 30 31 31 32 32 32 31 30 29 29 29 29 29 30 30 28 27 27 26 25 25 24 22 21 21 21 20 20 20 20 19 19 19 19 18 18 18 19 19 20 20
13 14 12 10 9 8 10 14 17 18 19 20 22 24 24 24 25 25 25 25 26 27 29 30 30 32 32 32 32 32 31 30 30 29 29 31 31 30 29 29 28 27 25 24 24 23 21 21 21 20 20 19 19 19 19 18 18 18 19 19 19 18 18
14 15 14 11 9 8 8 9 12 16 19 20 22 24 25 26 28 29 29 29 29 30 30 31 32 32 32 32 32 33 34 33 31 30 30 31 31 31 30 29 28 28 27 25 25 24 23 22 21 21 20 20 19 19 19 19 19 19 19 19 18 18 18
11 13 13 12 11 10 9 9 10 13 16 19 19 20 21 23 26 27 27 27 28 29 30 31 32 32 33 33 33 34 35 35 34 33 32 31 32 33 31 28 28 28 28 27 26 26 25 24 23 23 22 21 20 20 20 21 20 19 19 19 18 18 18
8 9 13 13 13 12 10 10 10 11 13 15 16 18 19 19 20 21 21 21 22 23 25 27 29 32 33 34 35 35 34 35 36 36 35 34 34 33 31 29 28 28 27 27 28 27 26 25 25 25 24 23 22 22 22 23 21 18 19 20 19 19 19
9 11 13 13 13 13 12 12 11 11 13 14 15 17 19 20 20 21 21 22 23 23 25 27 29 31 34 36 37 36 35 34 34 37 38 36 36 35 34 32 29 27 27 29 28 28 27 26 26 27 26 25 25 24 25 26 22 19 20 21 20 21 22
13 13 12 12 13 13 13 13 13 13 14 15 16 17 19 20 21 22 23 24 25 26 27 30 31 31 32 34 35 35 36 35 34 35 38 38 37 36 37 36 33 30 30 30 29 29 28 27 27 27 26 27 27 27 27 26 22 21 22 22 22 22 23
13 12 12 13 13 13 13 14 14 14 14 15 16 17 18 20 21 22 23 23 24 25 27 29 29 29 29 30 31 32 34 35 36 37 38 39 39 39 38 38 36 32 30 28 28 29 29 29 29 29 28 29 29 29 28 25 23 24 24 23 23 23 23
12 12 12 12 13 13 13 13 13 13 14 14 15 16 18 19 20 20 21 21 22 23 24 24 24 25 26 27 27 29 31 34 37 38 37 37 38 38 37 36 34 32 31 31 30 29 29 30 31 32 32 32 31 31 30 28 26 27 26 25 25 24 24
10 10 11 11 12 12 11 11 11 11 12 13 14 15 16 18 18 19 19 19 20 20 20 20 21 21 22 22 23 24 26 30 34 35 36 37 38 37 35 34 35 34 32 32 33 31 31 32 33 33 33 32 30 30 31 30 29 29 27 26 26 26 26
6 7 7 8 9 9 9 9 9 10 10 11 11 12 14 15 15 16 15 16 17 18 18 18 18 18 18 18 18 18 21 25 28 31 33 35 38 38 35 35 37 36 33 32 33 33 34 34 33 33 34 33 31 30 30 30 31 29 27 26 26 26 26
4 4 3 4 5 5 6 6 7 8 8 10 10 11 11 12 11 11 11 12 14 15 14 13 13 15 16 16 17 17 17 20 23 26 29 29 31 35 36 36 37 35 34 35 36 34 34 35 34 33 33 33 33 32 31 31 31 28 26 25 26 26 27
6 4 3 2 2 3 4 4 6 6 7 7 7 7 8 8 6 5 7 8 9 9 9 9 11 13 13 13 14 15 14 15 18 21 24 25 26 30 33 35 35 34 32 34 36 36 35 36 35 33 33 33 34 33 32 33 33 30 26 26 26 27 28
5 3 2 1 1 1 2 3 4 5 6 6 5 5 5 4 4 3 4 5 5 7 9 11 12 13 13 11 11 13 14 15 15 16 18 22 24 26 27 29 31 32 31 32 34 36 36 34 32 31 32 34 34 33 33 34 34 31 28 28 28 29 30
2 2 1 0 1 1 1 2 2 4 4 5 4 4 4 4 4 3 3 3 3 6 8 9 10 10 11 10 11 13 14 13 12 12 14 17 20 20 22 24 26 28 29 29 30 31 33 31 28 28 30 32 32 31 32 34 34 33 32 32 32 33 34
4 3 3 2 2 2 2 1 2 2 3 4 5 6 5 5 5 5 5 4 2 1 1 2 3 4 6 5 5 7 7 6 8 10 13 15 15 14 16 20 23 25 29 30 30 31 31 29 28 28 29 29 30 30 31 32 32 33 34 34 33 34 33
7 6 6 5 5 4 3 2 2 3 4 5 6 7 7 7 8 7 7 6 5 4 5 4 3 2 3 2 2 3 3 2 5 8 9 9 9 9 12 14 16 19 23 25 27 29 31 31 33 34 32 29 30 31 31 31 31 32 32 32 32 32 31
8 8 7 7 6 6 5 4 4 4 5 6 7 8 8 9 9 8 8 7 6 5 5 5 4 4 4 4 4 4 3 3 2 2 2 3 4 5 8 9 9 11 13 13 14 17 20 23 27 32 34 33 31 30 31 32 32 31 31 32 32 31 31
8 8 8 7 7 7 7 6 6 6 7 7 8 9 10 10 10 10 10 10 8 8 7 6 5 4 4 3 3 4 4 3 2 2 1 2 2 3 5 6 7 8 10 12 14 15 15 14 15 20 26 29 29 29 29 29 29 30 31 33 34 33 31
9 8 8 8 7 7 7 7 7 7 7 7 8 9 10 11 11 11 12 11 11 11 11 10 8 7 6 5 5 5 4 3 2 1 0 2 2 3 4 4 4 6 8 11 14 15 15 15 15 16 19 22 25 25 23 21 22 22 21 21 24 27 28
9 8 7 7 7 7 6 6 6 6 6 6 7 8 9 10 10 10 11 11 11 11 12 12 11 11 10 9 8 8 7 6 4 3 2 2 2 1 2 2 2 2 2 4 5 7 8 9 10 12 13 14 14 13 12 12 14 13 12 12 15 19 22
9 8 8 7 7 7 6 6 6 5 5 5 6 6 7 7 8 8 8 9 9 10 10 10 11 11 11 10 10 9 8 7 7 6 5 5 4 4 4 4 4 4 3 2 1 2 3 4 5 6 7 7 7 5 5 6 6 6 6 8 9 11 12
8 7 7 7 7 7 6 6 6 6 5 5 5 5 5 4 5 5 5 6 6 6 6 7 7 7 7 7 7 7 7 6 6 6 6 6 6 6 6 6 6 6 6 5 5 4 5 5 6 7 7 7 7 6 6 6 6 6 6 7 7 8 9
6 6 5 5 5 5 5 5 5 5 4 4 3 3 2 2 2 3 3 4 4 4 4 4 4 4 4 4 4 4 4 4 5 5 6 6 6 6 6 6 7 7 7 7 7 7 8 8 8 9 9 9 8 8 8 8 8 9 9 9 10 10 11
Wind_Direction
213 215 213 207 201 195 194 194 191 190 190 189 190 193 198 201 198 192 190 190 193 196 195 195 196 199 201 201 203 206 207 206 204 204 205 205 205 209 212 214 217 218 218 218 217 216 214 213 212 211 213 215 213 213 212 210 213 216 217 218 219 220 222
206 210 213 211 206 201 198 195 191 189 188 186 189 195 200 205 205 198 193 192 193 196 199 199 199 200 202 204 207 210 211 210 206 206 207 209 209 211 214 215 217 220 221 222 221 221 221 220 218 218 217 219 219 218 218 217 217 219 219 222 225 226 227
203 202 209 212 210 207 203 197 192 189 187 187 190 195 201 205 207 204 198 195 195 197 200 202 202 202 203 205 208 211 215 216 214 212 212 214 214 215 216 217 218 220 221 223 225 225 226 226 223 222 222 222 224 225 226 225 225 225 224 224 227 228 228
208 203 206 209 210 210 206 200 195 191 188 189 192 196 201 204 207 207 203 199 199 199 201 203 204 206 206 206 209 212 216 219 220 220 219 219 221 220 220 221 221 222 222 223 227 227 228 229 227 226 226 227 229 230 231 232 231 231 230 228 229 229 230
210 206 207 207 207 208 207 201 196 195 192 191 193 195 197 201 206 209 207 204 203 202 202 204 206 208 209 210 211 213 217 220 222 222 223 223 226 226 225 224 224 225 225 225 227 228 229 232 232 230 230 231 233 234 236 236 236 236 235 234 233 231 233
212 211 208 206 203 205 206 200 196 195 194 194 196 195 195 200 205 208 210 209 207 206 206 209 210 210 210 212 215 216 218 220 222 223 224 224 226 228 228 228 226 225 225 226 228 229 230 233 235 235 233 232 234 236 238 239 238 239 237 235 235 234 235
222 218 205 199 198 200 200 199 197 196 195 198 199 196 197 202 205 207 210 212 211 212 212 213 215 216 215 215 217 219 220 222 223 224 225 225 226 228 229 230 229 228 228 228 229 231 232 233 234 235 235 234 234 235 238 239 239 239 239 236 236 237 240
215 217 200 191 190 194 194 196 198 197 198 200 201 199 198 203 207 207 210 211 212 216 217 216 218 220 222 222 222 222 224 226 227 227 227 227 228 229 230 231 231 230 231 231 232 233 234 235 235 235 234 235 236 236 238 240 240 240 240 239 238 239 243
138 196 196 187 185 190 194 198 200 200 201 204 205 203 201 204 208 208 210 211 212 217 219 219 222 223 224 227 228 227 227 229 230 231 230 230 231 231 232 232 232 231 232 233 235 235 236 237 239 238 237 236 237 238 239 240 241 242 241 241 241 240 243
128 140 184 183 185 192 197 202 206 206 207 207 208 208 207 207 208 208 210 212 213 216 218 221 226 229 228 228 230 230 230 231 232 232 233 233 234 235 235 235 235 234 235 235 236 237 236 236 238 240 241 240 240 240 241 242 242 244 244 243 243 242 242
135 120 166 181 189 198 203 206 209 210 209 208 210 214 214 212 210 209 211 214 215 217 218 220 224 231 233 233 234 234 232 231 232 232 234 235 235 236 237 238 237 236 237 236 236 237 236 234 236 238 239 239 241 241 242 243 243 243 245 246 246 246 244
140 133 175 200 199 203 206 210 212 212 213 214 215 218 220 220 219 217 217 218 218 219 220 221 224 229 232 233 235 237 236 235 234 234 234 234 235 236 236 237 237 237 236 236 235 235 236 235 234 235 235 235 236 238 240 241 242 242 243 245 248 249 249
147 138 156 190 204 208 212 215 215 215 217 219 220 221 222 225 227 227 227 225 224 223 222 223 226 230 234 235 236 236 235 234 234 236 238 236 234 234 235 236 236 236 236 235 234 234 234 235 235 233 233 233 233 235 237 238 239 240 241 243 247 250 251
163 158 162 167 189 207 216 221 222 222 220 217 218 220 222 224 226 228 229 229 229 230 228 227 228 230 233 237 240 241 240 237 232 230 234 238 236 233 234 235 235 236 237 236 236 236 235 236 237 236 234 234 234 234 235 237 237 239 241 243 245 247 249
172 171 175 180 190 199 208 214 218 223 226 220 216 217 220 222 224 225 227 229 232 234 234 233 233 233 233 235 239 243 246 247 243 233 229 232 234 232 233 235 235 236 238 238 237 237 237 238 239 240 239 239 239 238 238 239 240 241 243 244 246 248 251
169 171 171 175 185 192 197 203 206 212 222 226 223 223 223 224 226 227 229 231 234 236 237 238 239 239 239 239 241 244 246 249 250 246 240 236 232 229 229 233 236 237 238 239 239 237 237 238 238 241 243 243 243 243 243 244 245 246 246 247 248 250 252
167 170 167 165 172 183 186 190 197 204 211 217 221 227 230 231 232 233 233 234 235 237 240 243 244 243 243 241 242 244 247 247 247 248 249 246 242 236 229 226 231 237 237 237 239 239 238 238 238 240 242 244 244 244 245 246 247 248 249 250 252 252 252
167 161 161 162 166 173 178 183 190 198 205 208 211 216 221 224 228 231 232 233 233 235 239 242 244 244 242 242 242 244 247 249 248 248 249 247 246 244 237 228 226 231 235 236 237 239 239 238 238 239 240 242 243 244 244 244 242 242 247 251 252 253 253
172 168 169 171 171 172 176 184 192 197 202 206 209 211 213 216 219 222 224 226 226 230 235 238 241 242 241 241 242 244 245 247 249 249 248 248 249 249 245 237 228 225 231 235 235 237 239 239 240 240 240 242 243 244 246 247 245 243 248 252 253 253 253
187 185 183 182 184 187 187 190 197 204 209 213 215 217 221 224 226 228 228 229 228 229 232 236 240 242 243 242 242 242 242 243 245 246 244 245 249 252 252 248 237 226 225 230 232 234 236 238 241 242 243 243 243 243 244 246 248 250 251 253 254 255 255
196 190 190 194 196 200 203 204 207 213 219 223 226 227 230 232 234 237 238 241 242 242 242 243 245 246 249 250 249 246 244 241 240 240 240 240 243 247 252 253 245 231 226 226 228 231 232 233 237 241 243 245 246 245 245 245 245 248 251 252 253 254 256
197 193 195 201 204 205 209 213 216 219 223 230 233 235 238 239 241 243 245 247 249 250 251 252 253 254 256 257 256 253 249 244 239 237 237 237 237 237 241 247 247 241 238 236 234 235 235 234 234 235 237 240 243 245 247 247 246 246 246 249 250 251 253
195 192 192 199 204 205 208 213 218 222 227 231 235 238 240 241 242 245 247 250 251 253 256 256 256 257 257 258 259 256 251 246 242 239 236 235 237 236 234 238 243 242 241 242 242 241 241 242 241 239 237 236 236 238 241 242 243 245 245 245 247 248 249
191 191 193 198 201 204 210 214 218 224 229 234 238 239 241 243 244 245 247 250 253 254 254 253 250 251 252 255 258 257 253 248 244 243 241 238 239 241 236 233 238 238 236 239 244 244 245 248 251 251 250 247 243 242 242 240 238 239 242 244 246 247 249
192 195 196 197 201 208 213 216 221 227 233 240 242 241 242 244 246 250 251 251 251 250 249 248 248 248 249 251 254 255 255 251 244 242 242 238 237 240 240 237 237 236 234 238 241 241 244 249 254 256 257 256 253 251 250 248 243 238 236 241 246 247 250
242 241 222 205 207 217 221 224 231 234 237 242 243 242 245 245 247 251 247 238 235 236 239 243 246 246 244 245 248 248 249 250 245 241 242 242 239 239 242 242 238 236 236 239 241 242 242 246 252 255 256 256 255 252 250 250 249 244 238 239 244 248 252
278 281 268 252 230 229 237 243 249 250 250 249 246 247 254 260 260 241 212 205 210 212 216 229 242 249 250 251 252 249 242 244 246 243 243 247 248 243 241 241 241 240 239 240 242 244 244 245 249 252 253 254 253 250 247 247 247 246 242 243 247 251 255
266 262 259 283 283 261 266 270 271 274 274 272 271 269 272 290 302 258 213 207 203 195 203 221 237 247 254 258 254 247 237 234 243 246 240 241 247 247 243 242 243 243 242 243 243 244 245 248 252 252 250 250 249 246 245 245 243 243 245 248 251 254 258
202 197 161 17 346 358 342 314 300 300 305 313 319 318 315 330 345 328 294 280 233 205 212 231 244 251 256 255 253 255 248 236 237 250 252 248 249 247 245 247 250 248 247 247 245 242 243 246 250 251 248 246 246 245 244 243 243 245 248 251 253 256 260
143 137 121 112 98 82 58 21 1 347 347 356 9 15 11 9 15 14 3 352 333 270 260 278 276 274 275 268 268 278 272 243 239 261 271 269 265 259 255 257 257 254 252 251 249 248 247 246 247 250 247 242 241 243 244 245 246 249 251 254 257 259 263
131 121 116 116 110 102 92 70 43 25 24 27 30 32 31 30 30 27 24 24 29 36 34 30 27 8 359 17 18 341 325 285 271 278 276 266 262 267 269 266 259 256 256 253 251 252 252 249 247 250 250 246 243 244 244 247 250 252 254 256 258 260 261
131 125 120 117 112 106 102 95 78 53 43 43 43 43 43 44 44 42 44 48 50 49 44 39 37 39 45 56 49 28 19 5 336 319 281 250 249 268 276 274 267 264 261 256 253 257 258 253 249 250 251 249 247 246 244 246 249 254 259 260 260 259 258
132 132 130 124 119 114 108 102 91 75 63 55 52 52 52 53 53 52 54 58 60 61 60 59 59 60 61 57 46 45 48 47 52 57 358 299 292 295 292 281 270 263 260 260 262 265 265 263 261 258 253 249 246 245 246 247 250 257 264 261 256 255 257
133 135 136 132 126 118 109 101 92 84 74 63 58 57 55 54 54 53 52 52 52 54 56 57 58 59 55 45 39 44 48 48 61 82 312 300 298 300 304 299 281 269 264 263 264 262 260 261 264 262 256 250 246 245 248 251 250 256 266 261 248 246 253
135 139 142 141 136 130 122 114 106 98 88 76 69 66 62 60 58 57 54 50 47 46 45 44 45 47 45 42 39 39 39 39 45 51 52 52 39 4 349 354 342 322 296 274 265 259 253 251 253 253 253 254 253 249 249 251 246 243 249 247 238 240 250
137 141 143 144 143 140 137 130 119 110 100 89 82 73 67 62 59 57 54 50 48 44 39 37 37 38 38 37 34 33 32 30 29 29 26 25 25 25 21 15 8 1 351 334 299 276 274 273 276 278 278 282 291 296 288 282 277 262 251 248 246 249 257
138 139 139 140 137 135 133 129 124 120 114 108 103 93 79 66 55 48 42 39 38 36 33 32 31 31 33 34 32 29 25 19 15 13 11 7 4 2 1 358 354 349 341 328 316 310 305 299 293 291 292 292 294 295 291 287 288 284 273 268 267 265 267
144 141 136 133 128 126 125 123 123 126 125 123 121 113 97 70 41 23 10 2 360 358 359 1 2 3 4 7 9 9 5 2 360 355 355 354 352 348 345 340 335 331 326 321 316 311 308 305 299 293 291 289 287 285 283 279 276 273 272 271 270 268 269
Height
3172 3175 3178 3181 3184 3186 3187 3189 3191 3193 3194 3196 3198 3200 3201 3203 3204 3206 3208 3209 3210 3211 3212 3213 3214 3215 3217 3218 3219 3219 3220 3222 3223 3224 3225 3226 3227 3227 3228 3229 3230 3231 3231 3232 3233 3233 3234 3234 3235 3235 3236 3236 3237 3237 3238 3238 3238 3239 3239 3240 3240 3240 3241
3168 3171 3174 3178 3182 3184 3186 3188 3189 3191 3193 3195 3197 3199 3200 3202 3204 3205 3207 3208 3209 3210 3211 3212 3213 3214 3216 3217 3218 3219 3219 3220 3222 3223 3224 3225 3226 3227 3228 3228 3229 3230 3231 3231 3232 3232 3233 3234 3234 3235 3235 3236 3236 3236 3237 3237 3238 3238 3239 3239 3239 3240 3240
3165 3167 3170 3175 3179 3182 3184 3186 3188 3190 3192 3194 3196 3197 3199 3201 3203 3204 3206 3207 3208 3209 3211 3212 3213 3214 3215 3215 3217 3218 3218 3219 3220 3222 3223 3224 3225 3226 3227 3227 3228 3229 3230 3230 3231 3232 3232 3233 3234 3234 3235 3235 3236 3236 3236 3237 3237 3238 3238 3239 3239 3239 3239
3163 3165 3168 3172 3176 3179 3182 3185 3187 3188 3191 3193 3195 3196 3198 3200 3202 3203 3205 3206 3207 3208 3210 3211 3212 3213 3214 3214 3215 3216 3217 3218 3219 3221 3222 3222 3223 3224 3225 3226 3227 3228 3229 3229 3230 3231 3231 3232 3233 3233 3234 3234 3235 3235 3236 3236 3236 3237 3237 3238 3238 3238 3239
3162 3164 3166 3169 3173 3176 3179 3183 3185 3187 3190 3192 3193 3195 3197 3199 3201 3202 3203 3205 3206 3207 3208 3210 3211 3211 3212 3213 3214 3215 3216 3217 3218 3219 3220 3221 3222 3223 3224 3225 3225 3226 3227 3228 3229 3230 3230 3231 3232 3232 3233 3233 3234 3234 3235 3235 3235 3236 3236 3237 3237 3237 3238
3159 3161 3163 3166 3170 3174 3177 3180 3183 3186 3189 3190 3192 3194 3196 3198 3199 3200 3202 3203 3205 3206 3207 3208 3209 3210 3211 3212 3213 3214 3215 3216 3217 3218 3219 3220 3220 3221 3222 3223 3224 3225 3225 3226 3227 3228 3229 3230 3230 3231 3232 3232 3233 3233 3233 3234 3234 3234 3235 3235 3236 3236 3237
3157 3157 3159 3162 3166 3171 3175 3178 3181 3184 3187 3189 3191 3193 3195 3196 3198 3199 3200 3201 3203 3204 3206 3207 3208 3209 3210 3211 3212 3213 3214 3215 3216 3217 3217 3218 3219 3220 3220 3221 3222 3223 3224 3225 3225 3226 3227 3228 3229 3230 3230 3231 3231 3232 3232 3232 3233 3233 3233 3234 3234 3235 3235
3153 3152 3154 3158 3162 3167 3172 3175 3178 3181 3184 3187 3189 3191 3193 3194 3196 3198 3199 3200 3202 3202 3204 3205 3206 3207 3209 3209 3211 3212 3213 3214 3214 3215 3216 3217 3217 3218 3219 3220 3220 3221 3222 3223 3224 3225 3226 3226 3227 3228 3229 3229 3230 3230 3231 3231 3231 3232 3232 3232 3233 3233 3234
3151 3150 3151 3154 3159 3164 3169 3172 3176 3178 3181 3184 3186 3188 3190 3192 3194 3196 3197 3199 3200 3201 3202 3204 3205 3206 3207 3208 3209 3210 3211 3212 3212 3213 3214 3215 3215 3216 3217 3218 3218 3219 3220 3221 3222 3223 3224 3225 3226 3226 3227 3228 3228 3229 3229 3230 3230 3230 3231 3231 3231 3232 3232
3150 3151 3152 3154 3158 3163 3166 3170 3173 3175 3178 3181 3183 3185 3187 3189 3191 3193 3195 3197 3198 3199 3201 3202 3203 3204 3205 3206 3207 3208 3209 3209 3210 3211 3212 3213 3214 3214 3215 3216 3217 3217 3218 3219 3220 3221 3222 3223 3223 3224 3225 3226 3227 3227 3228 3228 3229 3229 3229 3230 3230 3230 3231
3150 3152 3155 3157 3160 3163 3166 3169 3171 3173 3176 3178 3181 3183 3185 3187 3188 3190 3192 3194 3195 3197 3198 3200 3201 3201 3203 3204 3205 3205 3206 3206 3207 3208 3209 3211 3211 3212 3213 3214 3215 3215 3216 3217 3218 3218 3219 3220 3221 3221 3222 3223 3224 3225 3226 3226 3227 3227 3228 3228 3229 3229 3229
3151 3153 3156 3158 3160 3163 3165 3167 3169 3171 3174 3176 3178 3180 3182 3185 3187 3189 3190 3192 3193 3194 3196 3197 3198 3198 3199 3200 3201 3202 3202 3204 3205 3206 3207 3208 3209 3211 3211 3212 3213 3213 3214 3214 3215 3216 3216 3217 3218 3219 3220 3220 3221 3222 3223 3224 3224 3225 3226 3226 3226 3227 3227
3151 3153 3156 3158 3160 3162 3164 3166 3167 3169 3171 3173 3176 3178 3180 3182 3184 3186 3188 3190 3191 3192 3194 3195 3196 3196 3197 3198 3198 3198 3199 3200 3202 3204 3205 3206 3207 3208 3209 3210 3211 3211 3212 3212 3213 3214 3214 3215 3215 3216 3217 3218 3219 3220 3220 3221 3222 3223 3223 3224 3224 3224 3224
3150 3152 3155 3157 3160 3162 3163 3164 3165 3167 3168 3170 3173 3175 3177 3179 3181 3183 3185 3187 3188 3189 3191 3192 3193 3194 3195 3196 3196 3197 3197 3197 3197 3199 3201 3203 3204 3205 3206 3207 3208 3209 3209 3210 3211 3212 3213 3213 3214 3214 3215 3216 3216 3217 3218 3219 3220 3220 3221 3221 3222 3222 3222
3149 3151 3153 3155 3158 3160 3162 3163 3163 3164 3166 3167 3170 3172 3174 3176 3178 3180 3182 3183 3184 3186 3187 3188 3190 3191 3192 3193 3194 3195 3195 3196 3195 3196 3197 3198 3199 3201 3203 3204 3205 3206 3207 3208 3209 3210 3211 3211 3212 3212 3213 3214 3214 3215 3216 3217 3218 3218 3219 3219 3220 3220 3220
3148 3149 3150 3153 3155 3157 3159 3160 3161 3163 3164 3165 3167 3169 3171 3173 3175 3177 3178 3180 3181 3182 3184 3185 3186 3187 3189 3190 3191 3192 3192 3193 3194 3195 3195 3196 3195 3195 3198 3201 3202 3204 3205 3206 3207 3208 3209 3209 3210 3210 3211 3212 3212 3213 3214 3215 3215 3216 3216 3217 3217 3218 3219
3146 3147 3148 3151 3153 3155 3157 3158 3159 3161 3162 3164 3166 3168 3170 3171 3173 3174 3175 3176 3177 3179 3180 3181 3182 3183 3185 3186 3187 3188 3188 3189 3191 3192 3194 3194 3194 3193 3193 3195 3198 3201 3202 3204 3205 3205 3206 3207 3208 3208 3209 3210 3210 3211 3211 3212 3213 3213 3213 3214 3215 3216 3216
3145 3146 3147 3149 3151 3153 3155 3156 3157 3158 3160 3162 3165 3167 3168 3169 3170 3170 3171 3172 3174 3175 3175 3176 3177 3178 3180 3181 3183 3184 3185 3186 3188 3189 3190 3191 3193 3193 3192 3191 3193 3197 3199 3201 3202 3203 3203 3204 3205 3206 3206 3207 3208 3208 3209 3209 3208 3209 3211 3211 3212 3213 3213
3146 3146 3146 3147 3149 3150 3152 3154 3155 3156 3157 3159 3161 3162 3163 3164 3165 3166 3167 3168 3169 3170 3171 3171 3172 3173 3174 3176 3178 3179 3181 3183 3184 3186 3187 3188 3190 3192 3192 3190 3190 3192 3196 3197 3198 3199 3201 3201 3202 3203 3203 3204 3205 3206 3206 3205 3204 3207 3208 3209 3210 3210 3210
3146 3145 3146 3147 3148 3149 3150 3151 3153 3154 3155 3156 3157 3158 3159 3160 3161 3162 3163 3164 3165 3166 3166 3167 3167 3168 3169 3171 3172 3174 3176 3177 3179 3181 3183 3185 3187 3189 3190 3190 3189 3189 3191 3193 3194 3195 3197 3198 3199 3199 3200 3201 3202 3203 3203 3203 3204 3206 3207 3207 3207 3208 3208
3145 3145 3146 3147 3148 3148 3149 3150 3151 3152 3154 3155 3156 3156 3157 3157 3158 3159 3159 3160 3161 3162 3163 3163 3164 3165 3166 3167 3168 3170 3171 3172 3174 3175 3177 3180 3182 3185 3186 3187 3188 3188 3188 3188 3189 3191 3192 3193 3194 3195 3197 3198 3199 3200 3200 3200 3203 3204 3204 3204 3205 3205 3205
3145 3146 3146 3147 3147 3148 3148 3149 3150 3151 3152 3153 3154 3155 3155 3155 3156 3156 3157 3158 3159 3159 3160 3160 3161 3162 3163 3164 3165 3166 3168 3168 3169 3170 3171 3175 3177 3179 3181 3183 3185 3188 3188 3187 3187 3188 3189 3190 3190 3190 3192 3193 3194 3196 3196 3198 3200 3201 3200 3201 3202 3202 3203
3145 3146 3146 3147 3147 3147 3147 3148 3149 3150 3150 3151 3152 3152 3153 3153 3153 3154 3154 3155 3156 3156 3156 3157 3158 3159 3159 3160 3161 3162 3163 3164 3164 3165 3168 3171 3172 3173 3176 3180 3182 3184 3185 3185 3186 3186 3187 3187 3187 3186 3187 3188 3189 3190 3192 3194 3196 3197 3197 3198 3199 3200 3200
3146 3146 3146 3146 3146 3146 3147 3147 3148 3149 3149 3150 3150 3150 3150 3150 3150 3151 3151 3152 3153 3153 3153 3154 3154 3155 3155 3156 3157 3157 3158 3158 3160 3162 3164 3166 3168 3169 3171 3174 3177 3179 3180 3182 3183 3184 3184 3184 3185 3186 3187 3188 3189 3189 3189 3192 3193 3193 3194 3195 3196 3197 3197
3147 3147 3146 3146 3146 3146 3146 3147 3147 3147 3148 3148 3149 3149 3149 3149 3149 3148 3149 3149 3150 3150 3151 3151 3152 3152 3153 3153 3153 3153 3154 3154 3156 3158 3159 3160 3162 3165 3167 3168 3171 3174 3176 3177 3179 3181 3181 3181 3183 3185 3186 3187 3189 3189 3188 3190 3191 3190 3190 3192 3193 3194 3194
3147 3147 3147 3146 3146 3145 3145 3146 3146 3146 3147 3147 3147 3148 3148 3148 3147 3147 3147 3147 3147 3148 3150 3151 3151 3151 3151 3152 3151 3150 3151 3151 3152 3154 3155 3155 3157 3160 3163 3165 3167 3170 3172 3174 3175 3177 3178 3178 3179 3182 3182 3184 3186 3186 3186 3187 3188 3188 3188 3189 3190 3191 3191
3147 3147 3146 3146 3146 3146 3146 3146 3146 3146 3146 3146 3146 3146 3146 3146 3146 3146 3145 3146 3147 3148 3149 3150 3150 3150 3150 3150 3149 3148 3148 3149 3149 3151 3153 3154 3155 3157 3160 3162 3164 3166 3168 3169 3171 3173 3174 3175 3177 3179 3180 3181 3182 3183 3183 3184 3185 3186 3186 3185 3186 3187 3188
3147 3147 3147 3146 3146 3146 3146 3146 3146 3146 3146 3145 3145 3145 3145 3145 3145 3146 3146 3146 3147 3147 3148 3149 3149 3149 3149 3149 3148 3148 3147 3148 3149 3150 3152 3154 3155 3155 3157 3159 3161 3163 3165 3165 3167 3169 3170 3171 3173 3175 3176 3176 3177 3178 3179 3180 3181 3182 3182 3182 3183 3184 3184
3147 3147 3147 3146 3146 3146 3146 3146 3146 3146 3146 3145 3145 3145 3145 3145 3145 3146 3146 3146 3146 3147 3148 3148 3149 3148 3148 3148 3148 3148 3148 3148 3149 3151 3152 3153 3154 3155 3156 3157 3159 3160 3162 3163 3164 3165 3166 3167 3170 3171 3171 3172 3174 3174 3175 3176 3177 3178 3178 3179 3179 3180 3180
3147 3147 3147 3147 3147 3147 3147 3147 3147 3147 3146 3146 3146 3145 3145 3145 3145 3145 3146 3146 3146 3146 3147 3147 3147 3148 3148 3148 3148 3148 3148 3149 3150 3150 3151 3152 3153 3154 3155 3156 3157 3158 3159 3160 3161 3162 3163 3165 3166 3167 3168 3169 3170 3171 3172 3173 3174 3174 3175 3175 3176 3176 3176
3147 3147 3147 3147 3147 3147 3147 3147 3147 3147 3147 3147 3146 3146 3146 3145 3145 3145 3146 3146 3146 3146 3146 3147 3147 3147 3147 3148 3148 3149 3149 3150 3150 3150 3150 3152 3153 3154 3154 3154 3155 3155 3156 3157 3158 3159 3160 3161 3162 3163 3164 3165 3166 3167 3168 3169 3170 3170 3171 3171 3172 3173 3173
3147 3148 3148 3148 3148 3148 3148 3148 3148 3148 3147 3147 3147 3147 3147 3147 3147 3146 3146 3146 3147 3147 3147 3147 3147 3147 3147 3148 3148 3149 3150 3150 3150 3150 3151 3152 3153 3153 3153 3153 3153 3154 3154 3155 3156 3157 3157 3157 3159 3159 3160 3161 3163 3164 3165 3166 3166 3167 3167 3168 3168 3169 3169
3148 3148 3148 3149 3149 3149 3149 3149 3149 3149 3149 3148 3148 3148 3148 3148 3148 3148 3147 3148 3148 3148 3148 3148 3149 3148 3148 3149 3149 3150 3150 3150 3151 3151 3152 3152 3153 3153 3153 3153 3153 3153 3154 3154 3155 3155 3156 3156 3157 3157 3157 3158 3160 3161 3162 3163 3164 3164 3164 3163 3163 3165 3166
3149 3149 3150 3150 3150 3150 3150 3151 3151 3151 3151 3150 3149 3149 3149 3149 3149 3149 3149 3149 3149 3149 3149 3149 3149 3149 3149 3150 3150 3150 3150 3151 3151 3152 3152 3152 3152 3153 3153 3153 3153 3153 3153 3153 3153 3154 3154 3155 3156 3156 3156 3156 3157 3158 3161 3162 3162 3162 3162 3160 3160 3162 3163
3150 3150 3151 3151 3151 3151 3152 3152 3152 3152 3151 3151 3151 3151 3151 3151 3151 3150 3150 3150 3150 3150 3150 3150 3150 3150 3150 3150 3150 3150 3151 3151 3152 3152 3152 3153 3152 3152 3152 3152 3152 3152 3153 3153 3153 3153 3154 3154 3155 3155 3155 3155 3156 3157 3158 3159 3159 3159 3159 3158 3159 3160 3160
3150 3151 3151 3152 3152 3152 3152 3153 3153 3153 3152 3152 3152 3152 3152 3152 3152 3152 3152 3151 3151 3151 3151 3151 3151 3151 3151 3151 3151 3152 3152 3152 3153 3153 3153 3153 3153 3153 3152 3152 3153 3153 3153 3153 3154 3154 3154 3154 3155 3155 3155 3155 3155 3155 3156 3156 3157 3157 3157 3157 3157 3158 3158
3151 3151 3152 3152 3152 3152 3153 3153 3153 3153 3153 3152 3152 3152 3153 3153 3153 3153 3152 3152 3152 3152 3152 3152 3152 3152 3153 3153 3153 3153 3153 3153 3153 3153 3153 3153 3153 3152 3152 3153 3153 3153 3153 3154 3154 3154 3154 3154 3154 3154 3154 3154 3154 3155 3155 3155 3156 3156 3156 3156 3157 3157 3158
3151 3151 3151 3152 3152 3152 3153 3153 3153 3153 3153 3153 3153 3153 3153 3153 3154 3153 3153 3153 3153 3153 3153 3153 3153 3153 3154 3154 3154 3154 3154 3153 3153 3153 3153 3153 3153 3152 3152 3153 3153 3153 3153 3153 3153 3153 3153 3153 3153 3153 3154 3154 3154 3154 3154 3155 3155 3155 3155 3156 3156 3156 3157